Hilo, HI

5:51 PM HST on January 16, 2018 (GMT -1000)
Hilo International

Weather History for PHTO - August, 2012

Change the Weather History Date:

Tuesday, August 7, 2012

  Actual Average Record
Temperature  
Mean Temperature 76 °F 77 °F  
Max Temperature 83 °F 83 °F 88 °F (1986)
Min Temperature 68 °F 70 °F 64 °F (1980)
Degree Days  
Heating Degree Days 0 0  
Month to date heating degree days 0 0  
Since 1 June heating degree days 0 0  
Since 1 July heating degree days 0 0  
Cooling Degree Days 11 11  
Month to date cooling degree days 79 77  
Year to date cooling degree days 1771 1794  
Since 1 June cooling degree days 671 726  
Growing Degree Days 24 (Base 50)    
Moisture  
Dew Point 66 °F    
Average Humidity 74    
Maximum Humidity 90    
Minimum Humidity 58    
Precipitation  
Precipitation T in 0.32 in 5.02 in (1991)
Month to date precipitation 0.83 2.43  
Year to date precipitation 59.63 72.52  
Snow  
Snow 0.00 in - - ()
Month to date snowfall 0.0  
Since 1 June snowfall 0.0  
Since 1 July snowfall 0.0  
Snow Depth 0.00 in    
Sea Level Pressure  
Sea Level Pressure 30.07 in    
Wind  
Wind Speed 6 mph (ESE)    
Max Wind Speed 17 mph    
Max Gust Speed 22 mph    
Visibility 10 miles    
Events      
T = Trace of Precipitation, MM = Missing Value Source: NWS Daily Summary

Daily Weather History Graph

Daily Weather History Graph

Search for Another Location

Airport or City:

Trip Planner

Search our weather history database for the weather conditions in past years. The results will help you decide how hot, cold, wet, or windy it might be!

Date:

Astronomy

Aug. 07, 2012 Rise Set
Actual Time 5:58 AM HST 6:53 PM HST
Civil Twilight 5:35 AM HST 7:16 PM HST
Nautical Twilight 5:07 AM HST 7:43 PM HST
Astronomical Twilight 4:39 AM HST 8:11 PM HST
Moon 10:41 PM HST (8/7) 10:57 AM HST (8/7)
Length of Visible Light 13h 41m
Length of Day
12h 54m
Waning Gibbous, 68% of the Moon is Illuminated
Aug 7
Waning Gibbous
Aug 9
Last Quarter
Aug 17
New
Aug 24
First Quarter
Aug 31
Full

Hourly Weather History & Observations

Time (HST) Temp. Heat Index Dew Point Humidity Pressure Visibility Wind Dir Wind Speed Gust Speed Precip Events Conditions
12:53 AM 71.1 °F - 66.9 °F 87% 30.08 in 10.0 mi Calm Calm - N/A   Mostly Cloudy
1:53 AM 69.1 °F - 66.0 °F 90% 30.06 in 10.0 mi SW 3.5 mph - N/A   Scattered Clouds
2:53 AM 70.0 °F - 64.9 °F 84% 30.06 in 10.0 mi WSW 5.8 mph - N/A   Overcast
3:53 AM 69.1 °F - 64.0 °F 84% 30.06 in 10.0 mi WSW 6.9 mph - N/A   Overcast
4:53 AM 69.1 °F - 63.0 °F 81% 30.06 in 10.0 mi SW 5.8 mph - N/A   Overcast
5:53 AM 68.0 °F - 61.0 °F 78% 30.07 in 10.0 mi SW 8.1 mph - N/A   Partly Cloudy
6:53 AM 68.0 °F - 61.0 °F 78% 30.09 in 10.0 mi SW 5.8 mph - N/A   Scattered Clouds
7:53 AM 73.0 °F - 63.0 °F 71% 30.09 in 10.0 mi WSW 3.5 mph - N/A   Mostly Cloudy
8:53 AM 78.1 °F - 64.0 °F 62% 30.09 in 10.0 mi ENE 4.6 mph - N/A   Mostly Cloudy
9:53 AM 78.1 °F - 63.0 °F 60% 30.10 in 10.0 mi ENE 8.1 mph - N/A   Mostly Cloudy
10:53 AM 78.1 °F - 68.0 °F 71% 30.09 in 10.0 mi ESE 8.1 mph - N/A   Overcast
11:53 AM 80.1 °F 82.1 °F 66.0 °F 62% 30.08 in 10.0 mi East 11.5 mph - N/A   Mostly Cloudy
12:53 PM 75.9 °F - 68.0 °F 76% 30.08 in 10.0 mi East 15.0 mph 21.9 mph N/A   Overcast
1:53 PM 79.0 °F - 64.0 °F 60% 30.05 in 10.0 mi Calm Calm - 0.00 in   Mostly Cloudy
2:19 PM 77.0 °F - 64.4 °F 65% 30.05 in 10.0 mi NNE 3.5 mph 16.1 mph N/A   Mostly Cloudy
2:53 PM 78.1 °F - 66.0 °F 66% 30.04 in 10.0 mi North 5.8 mph - N/A   Mostly Cloudy
3:00 PM 78.8 °F - 66.2 °F 65% 30.04 in 10.0 mi NNW 3.5 mph - N/A   Mostly Cloudy
3:53 PM 79.0 °F - 64.9 °F 62% 30.03 in 10.0 mi Variable 3.5 mph - N/A   Mostly Cloudy
4:53 PM 80.1 °F 81.9 °F 64.9 °F 60% 30.01 in 10.0 mi East 5.8 mph - N/A   Mostly Cloudy
5:53 PM 77.0 °F - 66.9 °F 71% 30.03 in 10.0 mi NE 3.5 mph - N/A   Mostly Cloudy
6:09 PM 75.2 °F - 68.0 °F 78% 30.04 in 10.0 mi East 9.2 mph - N/A   Mostly Cloudy
6:32 PM 73.4 °F - 66.2 °F 78% 30.04 in 10.0 mi East 6.9 mph - N/A   Mostly Cloudy
6:53 PM 73.9 °F - 66.9 °F 79% 30.04 in 10.0 mi East 4.6 mph - N/A   Overcast
7:53 PM 75.0 °F - 66.9 °F 76% 30.06 in 10.0 mi NE 5.8 mph - N/A   Overcast
8:53 PM 73.0 °F - 68.0 °F 84% 30.08 in 10.0 mi SE 5.8 mph - N/A   Overcast
9:07 PM 71.6 °F - 68.0 °F 88% 30.08 in 10.0 mi South 5.8 mph - N/A   Overcast
9:53 PM 70.0 °F - 68.0 °F 93% 30.09 in 10.0 mi WSW 9.2 mph - 0.01 in   Overcast
10:53 PM 71.1 °F - 68.0 °F 90% 30.09 in 10.0 mi Calm Calm - 0.00 in   Overcast
11:51 PM 71.6 °F - 66.2 °F 83% 30.09 in 10.0 mi Variable 3.5 mph - N/A   Overcast
11:53 PM 71.1 °F - 68.0 °F 90% 30.09 in 10.0 mi SSE 3.5 mph - N/A   Overcast